Regional Weather Roundup
Issued by NWS Green Bay, WI

Home | Current Version | Previous Version | Text Only | Print | Product List | Glossary On
Versions: 1 2 3 4 5 6 7 8 9 10 11 12 13 14 15 16 17 18 19 20 21 22 23 24 25 26 27 28 29 30 31 32 33 34 35 36 37 38 39 40 41 42 43 44 45 46 47 48 49 50
000
ASUS43 KGRB 260611
RWRGRB

NORTH-CENTRAL AND NORTHEAST WISCONSIN REGIONAL WEATHER ROUNDUP
NATIONAL WEATHER SERVICE GREEN BAY WI
100 AM CDT TUE MAY 26 2015

WIZ005-009-010>012-018-019-260700-
NORTH CENTRAL WISCONSIN

CITY           SKY/WX    TMP DP  RH WIND       PRES   REMARKS
IRONWOOD       CLOUDY    54  54 100 CALM      29.76R VSB 1/4
MANITOWISH WTR PTCLDY    58  58 100 SW7       29.80R
ARBOR VITAE    MOCLDY    62  60  93 SW5       29.81S
EAGLE RIVER    LGT RAIN  60  60  99 SW5       29.81S
LAND O LAKES   MOCLDY    60  59  94 SW3       29.81S
RHINELANDER    MOCLDY    61  59  93 SW5       29.82S
PHILLIPS       MOCLDY    60  60  98 CALM      29.80S
ANTIGO         PTCLDY    58  57  98 SW7       29.84S
TOMAHAWK       PTCLDY    58  57  96 CALM      29.82F FOG
MERRILL        PTCLDY    56  56 100 CALM      29.84R FOG
$$

WIZ013-073-260700-
NORTHEAST WISCONSIN

CITY           SKY/WX    TMP DP  RH WIND       PRES   REMARKS
IRON MOUNTAIN  CLEAR     60  58  92 S6        29.80S
MARINETTE      CLOUDY    63  57  82 SW8       29.83R
OCONTO         PTCLDY    61  61 100 CALM      29.83S
$$

WIZ017-030-035>037-045-260700-
CENTRAL WISCONSIN

CITY           SKY/WX    TMP DP  RH WIND       PRES   REMARKS
MEDFORD        CLEAR     57  57  99 S5        29.82S
WAUSAU         CLEAR     61  60  97 S6        29.82S
MOSINEE        MOCLDY    59  59 100 S6        29.84S
MARSHFIELD     PTCLDY    62  58  86 S7        29.82F
WISC RAPIDS    CLEAR     64  60  87 S5        29.84S
STEVENS POINT  PTCLDY    61  59  95 S3        29.84F
WAUPACA        PTCLDY    65  64  96 S3        29.84F
SHAWANO        PTCLDY    62  60  93 CALM      29.84S
CLINTONVILLE   MOCLDY    59  59 100 CALM      29.84S
$$

WIZ038-039-048-051-260700-
FOX VALLEY

CITY           SKY/WX    TMP DP  RH WIND       PRES   REMARKS
NWS GREEN BAY  MOCLDY    68  61  78 SW9       29.85S
APPLETON       PTCLDY    66  59  77 SW12      29.86S
OSHKOSH        PTCLDY    66  59  78 S9        29.86S
FOND DU LAC    PTCLDY    68  59  73 S10       29.87F
$$

WIZ022-050-052-260700-
EAST CENTRAL WISCONSIN

CITY           SKY/WX    TMP DP  RH WIND       PRES   REMARKS
STURGEON BAY   PTCLDY    64  59  82 S9        29.87S
MANITOWOC      PTCLDY    68  61  78 SW8       29.87S
SHEBOYGAN      PTCLDY    65  60  84 S9        29.88F
$$

LMZ563-521-522-541>543-260700-
LAKESHORE

STATION/POSITION TIME  TEMP    WIND        PRES    VSBY  WAVE
                       AIR SEA DIR/SP/G                  HT/PER
                 (UTC) (F)     (DEG/KT/KT) (MB)    (MI)  (FT/S)
SHEBOYGAN LKSHOR 0600   63     190/ 10/ 11 1011.8F
KEWAUNEE LKSHORE 0500   55     200/  5/  7 1010.4R
NORTHPORT PIER   0500   63     160/  3/  6 1010.2S
N MID LAKE BUOY  0550   45 37  210/ 12/ 14 1010.6R         2/ 5
SISTER BAY LKSHO 0517   68     230/ 11/ 14   N/A
CHAMBERS ISLAND  0500   62     180/  6/ 11 1010.2R
MENOMINEE LKSHOR 0500   64     200/  7/  9 1010.8R
$$


USA.gov is the U.S. government's official web portal to all federal, state and local government web resources and services.